[[{"header":{"parameterUnit":"m.s-1","parameterCategory":2,"la1":30.2991,"la2":30.254,"lo1":-89.0895,"lo2":-89.0444,"dy":0.0017,"dx":0.0017,"nx":28,"ny":28,"refTime":"2024-07-10T03:00:00:Z","depth":"0","parameterNumber":2,"parameterNumberName":"U-component_of_CURRENTS"},"data":[0,0,0,0,0,0,0,0,0,0,0,0,0,0,0,0,0,0,0,0,0,0,0,0,0,0,0,0,0,0,0,0,0,0,0,0,0,0,0,0,0,0,0,0,0,0,0,0,0,0,0,0,0,0,0,0,0,0,0.2275,0.2276,0,0.2342,0.2342,0.2343,0.2398,0.2399,0.2399,0.24,0.2397,0.2397,0.2396,0,0,0,0,0,0,0,0,0,0,0,0,0,0.2219,0.222,0.2275,0.2276,0.2277,0.2341,0.2342,0.2343,0.2398,0.2399,0.24,0.24,0.2397,0.2397,0.2396,0,0,0,0,0,0,0,0,0,0,0,0,0,0.2261,0.222,0.2275,0.2311,0.2315,0.2341,0.2342,0.2344,0.2398,0.2399,0.24,0.24,0.2398,0.2397,0.2396,0.2375,0,0,0.2393,0.2393,0,0,0,0,0,0,0,0,0.2258,0.2263,0.2305,0.2309,0.2313,0.2362,0.2322,0.235,0.2398,0.2367,0.24,0.2401,0.2378,0.2379,0.2391,0.2374,0.2374,0.2393,0.2393,0.2392,0.2392,0,0,0,0,0,0,0,0.2255,0.226,0.2302,0.2306,0.2311,0.2332,0.2339,0.2328,0.2366,0.237,0.2374,0.238,0.238,0.2392,0.2391,0.2374,0.2393,0.2392,0.2392,0.2392,0.237,0.2369,0,0,0,0,0,0,0.2244,0.2257,0.23,0.2304,0.2287,0.2333,0.234,0.2346,0.2368,0.2373,0.2379,0.2382,0.2393,0.2392,0.2391,0.2392,0.2392,0.2392,0.2391,0.237,0.237,0.2369,0,0,0,0,0,0,0.2242,0.2247,0.2297,0.2282,0.229,0.2332,0.2339,0.2347,0.2363,0.2376,0.238,0.2388,0.2394,0.2393,0.2392,0.2391,0.2391,0.239,0.237,0.237,0.2369,0.2376,0,0,0,0,0,0,0.224,0.2246,0.2244,0.2281,0.229,0.2317,0.2338,0.2348,0.2365,0.237,0.2384,0.2385,0.2394,0.2393,0.2391,0.239,0.239,0.237,0.237,0.237,0.2376,0.2376,0.2376,0,0,0,0,0,0.2238,0.2245,0.2244,0.2249,0.2287,0.2317,0.2324,0.2357,0.2365,0.2374,0.2385,0.2385,0.2391,0.2393,0.239,0.2388,0.237,0.237,0.237,0.2376,0.2376,0.2376,0,0,0,0,0,0,0.2223,0.2252,0.2251,0.2266,0.2285,0.2326,0.2332,0.2352,0.237,0.2366,0.2382,0.2383,0.2385,0.2381,0.2382,0.2382,0.238,0.238,0.2386,0.2386,0.2386,0.2394,0.2389,0,0,0,0,0,0.2213,0.2228,0.225,0.2262,0.2261,0.229,0.2304,0.2325,0.2346,0.2356,0.2364,0.237,0.2381,0.2379,0.2383,0.2375,0.2403,0.2372,0.2372,0.2373,0.2377,0.2422,0.2428,0.2369,0.2369,0.2369,0,0,0.2207,0.2228,0.2233,0.2259,0.2268,0.2272,0.2301,0.2317,0.2325,0.2347,0.235,0.2368,0.2379,0.2384,0.2383,0.238,0.2407,0.2372,0.2373,0.2377,0.2423,0.2429,0.2434,0.2369,0.2369,0.2369,0,0,0.2199,0.2214,0.2211,0.2225,0.224,0.2261,0.2262,0.2288,0.2302,0.2308,0.2333,0.2353,0.2351,0.2375,0.2383,0.238,0.2409,0.2377,0.2381,0.2425,0.2431,0.2436,0.2495,0.2505,0.2374,0.2374,0.2374,0,0.2179,0.2192,0.2216,0.2213,0.2222,0.225,0.2243,0.2261,0.229,0.23,0.2304,0.2341,0.2349,0.2377,0.2388,0.2381,0.242,0.2381,0.2427,0.2433,0.2439,0.2497,0.2509,0.2375,0.2375,0.2374,0.2374,0,0.2165,0.2174,0.2173,0.2178,0.2189,0.2196,0.2213,0.2224,0.2239,0.2266,0.2292,0.2319,0.2348,0.2354,0.2373,0.2414,0.2436,0.2427,0.243,0.2445,0.2506,0.2518,0.2375,0.2375,0.2375,0.2375,0,0,0.2115,0.2153,0.2152,0.2152,0.2173,0.2182,0.2185,0.2209,0.2227,0.2248,0.2283,0.2309,0.2341,0.2354,0.2383,0.2424,0.2502,0.2446,0.2448,0.2512,0.2624,0.2609,0.2621,0.2509,0.2511,0.2512,0.2657,0,0.2087,0.2095,0.212,0.2118,0.2113,0.2143,0.2152,0.2177,0.221,0.2252,0.229,0.2333,0.2335,0.2369,0.2406,0.2487,0.2532,0.2466,0.2593,0.2597,0.2589,0.2633,0.2448,0.2558,0.2668,0.267,0.2672,0,0.2054,0.2068,0.2068,0.2096,0.2093,0.21,0.2132,0.2147,0.2209,0.2235,0.2284,0.2336,0.2409,0.2408,0.2533,0.2496,0.256,0.2613,0.2619,0.2611,0.2605,0.2557,0.2575,0.2535,0.2691,0.2689,0.2688,0,0.2017,0.2031,0.204,0.2046,0.2075,0.2079,0.2097,0.2143,0.2164,0.2245,0.2286,0.2365,0.2427,0.2506,0.2611,0.2589,0.2758,0.2734,0.2778,0.2779,0.2647,0.2632,0.2642,0.2819,0.2819,0.2819,0.2818,0,0.1992,0.1994,0.2026,0.2029,0.2033,0.2054,0.2074,0.2106,0.2161,0.2198,0.2283,0.2349,0.2458,0.2566,0.264,0.2755,0.2778,0.2798,0.2817,0.2645,0.2629,0.2608,0.2602,0.2824,0.2823,0.2822,0.2821,0,0.1964,0.1987,0.1991,0.2015,0.202,0.2024,0.2056,0.2074,0.2131,0.219,0.2223,0.2362,0.2504,0.2612,0.2769,0.2797,0.2828,0.2935,0.2737,0.2729,0.271,0.2711,0.2635,0.2579,0.3008,0.3009,0.3009,0,0.197,0.1969,0.198,0.1982,0.1996,0.2005,0.2012,0.2053,0.2078,0.2199,0.2234,0.2398,0.2491,0.2718,0.2802,0.2926,0.2855,0.2839,0.2748,0.2702,0.2717,0.2589,0.2538,0.2587,0.2584,0.2581,0.2579,0,0.1971,0.1968,0.1957,0.1962,0.1965,0.1969,0.1988,0.1999,0.2054,0.2105,0.2206,0.2295,0.2503,0.2564,0.2732,0.2782,0.2678,0.2794,0.2779,0.2424,0.2249,0.2205,0.2525,0.2557,0.2559,0.2561,0.2562,0.2563,0.1972,0.1937,0.1923,0.1919,0.1931,0.1928,0.1904,0.1934,0.1954,0.1996,0.2118,0.2182,0.2317,0.2526,0.2565,0.2547,0.2579,0.2484,0.2506,0.2395,0.2268,0.2562,0.2591,0.2593,0.2596,0.2597,0.2599,0,0.1955,0.1903,0.189,0.1862,0.1866,0.1888,0.1877,0.1835,0.1829,0.1893,0.1936,0.2013,0.208,0.2194,0.2275,0.2253,0.2113,0.223,0.1983,0.1967,0.2253,0.2161,0.2056,0.2056,0.2056,0.2056,0.2056,0.2056,0.1932,0.1877,0.1832,0.1803,0.1799,0.1744,0.172,0.1677,0.1682,0.1677,0.1693,0.1748,0.1944,0.2052,0.2046,0.2013,0.1909,0.1793,0.1899,0.2084,0.2108,0.213,0.204,0.1911,0.1911,0.1433,0.143,0.1427]},{"header":{"parameterUnit":"m.s-1","parameterCategory":2,"la1":30.2991,"la2":30.254,"lo1":-89.0895,"lo2":-89.0444,"dy":0.0017,"dx":0.0017,"nx":28,"ny":28,"refTime":"2024-07-10T03:00:00:Z","depth":"0","parameterNumber":3,"parameterNumberName":"V-component_of_CURRENTS"},"data":[0,0,0,0,0,0,0,0,0,0,0,0,0,0,0,0,0,0,0,0,0,0,0,0,0,0,0,0,0,0,0,0,0,0,0,0,0,0,0,0,0,0,0,0,0,0,0,0,0,0,0,0,0,0,0,0,0,0,0.0656,0.0656,0,0.0617,0.0617,0.0617,0.0584,0.0583,0.0583,0.0583,0.0455,0.0452,0.0449,0,0,0,0,0,0,0,0,0,0,0,0,0,0.0705,0.0704,0.0656,0.0656,0.0655,0.0618,0.0617,0.0617,0.0584,0.0583,0.0583,0.0583,0.0456,0.0453,0.0449,0,0,0,0,0,0,0,0,0,0,0,0,0,0.0677,0.0704,0.0656,0.0634,0.0632,0.0618,0.0617,0.0616,0.0584,0.0583,0.0583,0.0582,0.0457,0.0453,0.0448,0.0432,0,0,0.0434,0.0432,0,0,0,0,0,0,0,0,0.0678,0.0675,0.0638,0.0636,0.0633,0.0605,0.0587,0.055,0.0584,0.0602,0.0583,0.0582,0.0497,0.0489,0.0485,0.0426,0.042,0.0434,0.0431,0.0429,0.0428,0,0,0,0,0,0,0,0.068,0.0677,0.0641,0.0637,0.0634,0.0627,0.0623,0.0581,0.0552,0.0601,0.0598,0.0594,0.0495,0.049,0.0481,0.0418,0.0434,0.043,0.0427,0.0425,0.0328,0.0328,0,0,0,0,0,0,0.0685,0.0678,0.0642,0.064,0.0655,0.0627,0.0622,0.0615,0.0554,0.0545,0.0594,0.0592,0.0498,0.0487,0.0477,0.0451,0.0429,0.0425,0.0422,0.0328,0.0328,0.0328,0,0,0,0,0,0,0.0686,0.0682,0.0644,0.0658,0.0653,0.0627,0.0619,0.0614,0.0607,0.055,0.0539,0.0592,0.0497,0.0483,0.0446,0.0446,0.0423,0.0419,0.0327,0.0328,0.0328,0.0401,0,0,0,0,0,0,0.0688,0.0683,0.0678,0.0659,0.0652,0.0636,0.0619,0.0614,0.0605,0.0602,0.0544,0.0532,0.0495,0.0453,0.0442,0.0439,0.0415,0.0327,0.0327,0.0328,0.0398,0.0403,0.0408,0,0,0,0,0,0.069,0.0696,0.0678,0.0674,0.0647,0.0636,0.0632,0.0612,0.0606,0.0604,0.0571,0.0534,0.0446,0.045,0.0436,0.0432,0.0327,0.0327,0.0328,0.0396,0.0402,0.0408,0,0,0,0,0,0,0.0725,0.0692,0.0673,0.067,0.065,0.063,0.0628,0.0616,0.0591,0.0585,0.0537,0.0523,0.049,0.0452,0.0457,0.0405,0.038,0.0377,0.0436,0.0442,0.0447,0.0469,0.0411,0,0,0,0,0,0.0727,0.072,0.0687,0.0688,0.0674,0.0651,0.0644,0.0629,0.0606,0.0595,0.0557,0.0515,0.0482,0.0456,0.0417,0.0388,0.0363,0.0375,0.038,0.0384,0.0393,0.0364,0.0368,0.0329,0.0329,0.0329,0,0,0.0744,0.0726,0.0722,0.0694,0.0677,0.0664,0.0646,0.0637,0.0629,0.0582,0.0561,0.0529,0.0479,0.045,0.0431,0.0417,0.0383,0.0385,0.0389,0.0395,0.0365,0.0369,0.0373,0.0329,0.0329,0.0329,0,0,0.0773,0.0753,0.0746,0.0727,0.0697,0.0683,0.0681,0.0653,0.0639,0.0616,0.0586,0.056,0.05,0.0473,0.0449,0.0456,0.0413,0.0438,0.0475,0.0448,0.0452,0.0454,0.0434,0.0434,0.0437,0.0437,0.0437,0,0.0786,0.0777,0.0747,0.0732,0.0723,0.0693,0.0687,0.067,0.0638,0.063,0.0613,0.0556,0.0512,0.049,0.0497,0.0467,0.0449,0.046,0.0456,0.0458,0.046,0.0438,0.0437,0.0441,0.0441,0.044,0.044,0,0.0796,0.079,0.079,0.0757,0.0746,0.0742,0.0708,0.0697,0.068,0.0662,0.0638,0.0594,0.056,0.0544,0.0522,0.0513,0.0497,0.0471,0.0447,0.0469,0.0444,0.0442,0.0446,0.0445,0.0444,0.0443,0,0,0.0817,0.0798,0.0798,0.0792,0.0759,0.0754,0.0742,0.0725,0.0729,0.069,0.0697,0.0645,0.0629,0.0604,0.0573,0.0555,0.0552,0.0527,0.0523,0.0517,0.0501,0.0498,0.0495,0.0529,0.0529,0.0529,0.0483,0,0.0829,0.0826,0.0811,0.0816,0.0809,0.0784,0.0782,0.0763,0.0747,0.0745,0.0704,0.0694,0.0647,0.0647,0.0618,0.0575,0.0549,0.0567,0.0472,0.047,0.0472,0.0493,0.05,0.046,0.048,0.048,0.048,0,0.0829,0.0831,0.0839,0.0846,0.0841,0.0843,0.0843,0.0837,0.0821,0.0809,0.0789,0.0764,0.0738,0.0699,0.0621,0.0637,0.0575,0.0536,0.0532,0.0504,0.0463,0.0439,0.0455,0.038,0.0476,0.0476,0.0477,0,0.085,0.0853,0.0869,0.0865,0.0861,0.0868,0.0871,0.0858,0.0865,0.0861,0.0874,0.0825,0.0819,0.0736,0.0649,0.0637,0.057,0.0532,0.0465,0.0464,0.0437,0.0434,0.0379,0.047,0.047,0.047,0.047,0,0.0862,0.0873,0.0884,0.0887,0.0912,0.09,0.0926,0.092,0.0932,0.0959,0.0915,0.0938,0.0831,0.078,0.0678,0.0576,0.0579,0.0482,0.0455,0.0463,0.0463,0.0369,0.0337,0.0468,0.0468,0.0469,0.0469,0,0.0869,0.0878,0.0896,0.0911,0.0918,0.0935,0.0964,0.0983,0.0994,0.1033,0.1042,0.1026,0.0966,0.0846,0.0728,0.0625,0.0489,0.0475,0.0501,0.0478,0.0345,0.0317,0.0262,0.0259,0.0396,0.0395,0.0395,0,0.0867,0.0879,0.0911,0.0928,0.0936,0.0964,0.0983,0.1005,0.1036,0.1093,0.1121,0.1099,0.1096,0.0924,0.0742,0.0563,0.0488,0.0445,0.0415,0.0351,0.0299,0.0296,0.0298,0.0406,0.0406,0.0405,0.0405,0,0.0864,0.0882,0.0899,0.0938,0.0967,0.1004,0.1045,0.1087,0.1129,0.119,0.1268,0.1288,0.1138,0.0983,0.0741,0.0615,0.0426,0.0437,0.0357,0.0301,0.0306,0.0286,0.0426,0.0404,0.0404,0.0405,0.0405,0.0405,0.0861,0.0873,0.0904,0.0943,0.0987,0.1047,0.1097,0.1166,0.1255,0.1363,0.1371,0.1409,0.1186,0.0875,0.0698,0.0393,0.042,0.0292,0.0262,0.0265,0.0269,0.0419,0.0374,0.0374,0.0374,0.0374,0.0374,0,0.0837,0.0865,0.0904,0.0958,0.1017,0.1041,0.1138,0.1218,0.1353,0.1439,0.1519,0.142,0.113,0.0835,0.043,0.0243,0.0207,0.0146,0.0131,0.0141,0.025,0.0257,0.0202,0.0202,0.0202,0.0202,0.0202,0.0202,0.082,0.0847,0.0873,0.0967,0.1022,0.1113,0.1183,0.1333,0.1433,0.1579,0.1599,0.1603,0.1424,0.0661,0.0201,0.0092,0.0008,-0.0021,-0.0048,-0.0003,0.0008,0.0018,0.0016,-0.0089,-0.0089,-0.0126,-0.0127,-0.0128]}],[{"header":{"parameterUnit":"m.s-1","parameterCategory":2,"la1":30.2991,"la2":30.254,"lo1":-89.0895,"lo2":-89.0444,"dy":0.0017,"dx":0.0017,"nx":28,"ny":28,"refTime":"2024-07-10T03:00:00:Z","depth":"2","parameterNumber":2,"parameterNumberName":"U-component_of_CURRENTS"},"data":[0,0,0,0,0,0,0,0,0,0,0,0,0,0,0,0,0,0,0,0,0,0,0,0,0,0,0,0,0,0,0,0,0,0,0,0,0,0,0,0,0,0,0,0,0,0,0,0,0,0,0,0,0,0,0,0,0,0,0.1741,0.1739,0,0.1529,0.1526,0.1523,0.1501,0.1504,0.1507,0.151,0.1717,0.1719,0.1722,0,0,0,0,0,0,0,0,0,0,0,0,0,0.1748,0.175,0.1741,0.1739,0.1737,0.153,0.1526,0.1522,0.1501,0.1504,0.1508,0.1512,0.1716,0.1719,0.1722,0,0,0,0,0,0,0,0,0,0,0,0,0,0.1653,0.175,0.1741,0.1709,0.1705,0.1531,0.1526,0.1521,0.15,0.1505,0.1509,0.1514,0.1715,0.1719,0.1722,0.1652,0,0,0.1734,0.1736,0,0,0,0,0,0,0,0,0.1659,0.1651,0.1716,0.1711,0.1707,0.1556,0.1604,0.1589,0.1499,0.1567,0.151,0.1516,0.1705,0.171,0.1639,0.1661,0.167,0.1734,0.1737,0.1738,0.174,0,0,0,0,0,0,0,0.1666,0.1658,0.1646,0.1714,0.1708,0.1577,0.1571,0.1597,0.1612,0.1561,0.1562,0.1553,0.1705,0.1634,0.1645,0.1673,0.1734,0.1738,0.174,0.1742,0.1829,0.1829,0,0,0,0,0,0,0.1728,0.1667,0.1653,0.1641,0.1705,0.1576,0.1568,0.1591,0.1602,0.1608,0.155,0.1553,0.1625,0.164,0.1653,0.1746,0.1738,0.1742,0.1744,0.1829,0.1829,0.1829,0,0,0,0,0,0,0.1729,0.173,0.1662,0.1655,0.1639,0.1575,0.1597,0.1584,0.1602,0.1591,0.1604,0.1593,0.163,0.1648,0.1727,0.175,0.1744,0.1747,0.1829,0.1829,0.1829,0.1824,0,0,0,0,0,0,0.1731,0.1732,0.1754,0.1661,0.1642,0.1638,0.1593,0.1577,0.1589,0.1594,0.1631,0.1648,0.1635,0.1721,0.1731,0.1755,0.175,0.1829,0.1829,0.1829,0.1824,0.1824,0.1824,0,0,0,0,0,0.1732,0.1743,0.1757,0.1755,0.1682,0.1642,0.162,0.1578,0.1589,0.1608,0.1616,0.1652,0.1728,0.1724,0.1735,0.1761,0.1829,0.1829,0.1829,0.1824,0.1824,0.1824,0,0,0,0,0,0,0.1741,0.174,0.1754,0.1764,0.1751,0.1645,0.1626,0.1623,0.1624,0.1642,0.1654,0.167,0.175,0.1754,0.1749,0.1783,0.1784,0.1786,0.1776,0.1777,0.1776,0.1764,0.1753,0,0,0,0,0,0.1761,0.1792,0.1767,0.1784,0.1779,0.1722,0.1697,0.1686,0.1672,0.1676,0.1698,0.1715,0.1731,0.1764,0.1781,0.1804,0.1815,0.1826,0.1826,0.1826,0.1822,0.1885,0.189,0.1829,0.1829,0.1829,0,0,0.1747,0.1773,0.1772,0.1791,0.1756,0.1725,0.1719,0.171,0.1702,0.1705,0.1719,0.174,0.1744,0.1757,0.1792,0.1781,0.1837,0.1826,0.1826,0.1821,0.1886,0.1892,0.1897,0.1829,0.1829,0.1829,0,0,0.174,0.1786,0.1796,0.18,0.1806,0.1761,0.1797,0.175,0.1761,0.1779,0.1765,0.1803,0.1834,0.1806,0.1803,0.182,0.1848,0.184,0.1817,0.1878,0.1884,0.189,0.1862,0.1865,0.1823,0.1823,0.1823,0,0.173,0.1757,0.1788,0.1802,0.1792,0.1802,0.1787,0.1771,0.1764,0.1785,0.1817,0.1827,0.1844,0.1834,0.1806,0.1824,0.1836,0.1818,0.188,0.1886,0.1892,0.1863,0.1866,0.1823,0.1823,0.1823,0.1823,0,0.1717,0.1742,0.1749,0.1776,0.1774,0.1771,0.1769,0.1787,0.1817,0.1813,0.1875,0.1865,0.1878,0.1874,0.1835,0.1861,0.1845,0.1889,0.1883,0.1898,0.1865,0.1869,0.1822,0.1823,0.1823,0.1823,0,0,0.168,0.1726,0.1728,0.1749,0.1769,0.1762,0.1768,0.1775,0.1795,0.1835,0.1862,0.1861,0.1892,0.1886,0.1865,0.1875,0.1889,0.1879,0.1883,0.1852,0.1968,0.1927,0.1927,0.1961,0.1963,0.1964,0.191,0,0.1659,0.1682,0.1701,0.1698,0.1704,0.1725,0.173,0.1757,0.1792,0.1821,0.1863,0.1899,0.189,0.1901,0.1915,0.1938,0.1908,0.1895,0.1956,0.1956,0.1923,0.1935,0.1757,0.1694,0.1914,0.1914,0.1915,0,0.164,0.1668,0.1661,0.1703,0.1703,0.1705,0.1734,0.1737,0.1787,0.1835,0.1887,0.1925,0.1954,0.1945,0.2,0.2004,0.196,0.1953,0.1953,0.1925,0.1926,0.1725,0.1694,0.1922,0.1921,0.1921,0.192,0,0.1612,0.1644,0.1646,0.1654,0.168,0.1704,0.172,0.1764,0.1782,0.1854,0.189,0.1968,0.2031,0.2045,0.2085,0.204,0.2141,0.209,0.1982,0.1976,0.1838,0.1818,0.2068,0.2068,0.2068,0.2068,0.2068,0,0.1584,0.1585,0.1653,0.1642,0.167,0.1715,0.1731,0.1766,0.1818,0.1856,0.1909,0.1958,0.2071,0.2149,0.2116,0.2119,0.2197,0.197,0.1979,0.1824,0.1805,0.2029,0.2025,0.2066,0.2067,0.2067,0.2067,0,0.154,0.1557,0.1582,0.1638,0.165,0.1688,0.1729,0.175,0.1815,0.1859,0.1895,0.2006,0.2132,0.2207,0.2265,0.2179,0.217,0.2121,0.1899,0.1882,0.1905,0.1902,0.1921,0.192,0.1919,0.1918,0.1917,0,0.1506,0.1539,0.158,0.16,0.1628,0.1674,0.169,0.1746,0.1783,0.1883,0.1917,0.2053,0.2086,0.2176,0.2143,0.2093,0.2178,0.1858,0.1716,0.1893,0.19,0.1898,0.1896,0.1491,0.1487,0.1484,0.1481,0,0.1485,0.1523,0.1498,0.1558,0.159,0.1611,0.1671,0.1684,0.1762,0.1794,0.1878,0.1896,0.1977,0.1903,0.19,0.1825,0.1867,0.1776,0.209,0.1579,0.1491,0.1497,0.1509,0.145,0.1453,0.1455,0.1457,0.1458,0.1435,0.1449,0.1446,0.1486,0.1523,0.1553,0.1546,0.1613,0.1611,0.1655,0.1747,0.172,0.1716,0.1593,0.1565,0.1559,0.1595,0.1475,0.1484,0.1497,0.1481,0.1399,0.133,0.1332,0.1334,0.1336,0.1338,0,0.1397,0.1388,0.1401,0.1401,0.1437,0.1512,0.1514,0.148,0.1465,0.1529,0.1538,0.1352,0.125,0.1339,0.1216,0.1125,0.1088,0.1125,0.1078,0.1106,0.1133,0.1098,0.0846,0.0845,0.0844,0.0844,0,0,0.1354,0.1295,0.1289,0.1291,0.1359,0.1349,0.1349,0.1312,0.1296,0.1229,0.1223,0.1204,0.1237,0.1038,0.0971,0.0928,0.1023,0.0886,0.1267,0.1239,0.1266,0.1303,0.1279,0,0,0,0,0]},{"header":{"parameterUnit":"m.s-1","parameterCategory":2,"la1":30.2991,"la2":30.254,"lo1":-89.0895,"lo2":-89.0444,"dy":0.0017,"dx":0.0017,"nx":28,"ny":28,"refTime":"2024-07-10T03:00:00:Z","depth":"2","parameterNumber":3,"parameterNumberName":"V-component_of_CURRENTS"},"data":[0,0,0,0,0,0,0,0,0,0,0,0,0,0,0,0,0,0,0,0,0,0,0,0,0,0,0,0,0,0,0,0,0,0,0,0,0,0,0,0,0,0,0,0,0,0,0,0,0,0,0,0,0,0,0,0,0,0,0.0187,0.0185,0,-0.0038,-0.0041,-0.0044,-0.0126,-0.0124,-0.0123,-0.0121,-0.0077,-0.0078,-0.0078,0,0,0,0,0,0,0,0,0,0,0,0,0,0.0313,0.0312,0.0187,0.0185,0.0183,-0.0037,-0.0041,-0.0045,-0.0126,-0.0124,-0.0122,-0.0121,-0.0077,-0.0078,-0.0078,0,0,0,0,0,0,0,0,0,0,0,0,0,0.0184,0.0312,0.0187,0.0121,0.0114,-0.0037,-0.0041,-0.0046,-0.0126,-0.0124,-0.0122,-0.012,-0.0077,-0.0078,-0.0078,-0.0124,0,0,-0.0079,-0.0079,0,0,0,0,0,0,0,0,0.0192,0.0179,0.0133,0.0126,0.0117,-0.0045,0.002,-0.0056,-0.0127,-0.0043,-0.0121,-0.0119,-0.0038,-0.0042,-0.0104,-0.0122,-0.012,-0.0079,-0.0079,-0.0079,-0.0079,0,0,0,0,0,0,0,0.0201,0.0187,0.009,0.0131,0.0121,0.0024,0.0009,0.0002,-0.0051,-0.005,-0.0055,-0.0069,-0.0041,-0.0103,-0.0102,-0.0119,-0.0079,-0.0079,-0.0079,-0.0079,-0.0087,-0.0087,0,0,0,0,0,0,0.0254,0.0196,0.0098,0.0084,0.0169,0.0021,0.0004,-0.0001,-0.0057,-0.0064,-0.007,-0.0071,-0.0104,-0.0102,-0.01,-0.005,-0.0079,-0.0079,-0.008,-0.0087,-0.0087,-0.0087,0,0,0,0,0,0,0.0257,0.0247,0.0107,0.014,0.0117,0.002,0.0012,-0.0007,-0.0015,-0.0074,-0.0076,-0.0051,-0.0102,-0.01,-0.006,-0.0051,-0.008,-0.008,-0.0087,-0.0087,-0.0087,-0.0015,0,0,0,0,0,0,0.0262,0.025,0.0262,0.0145,0.0117,0.0072,0.001,-0.0012,-0.0027,-0.0029,-0.0059,-0.0057,-0.01,-0.006,-0.006,-0.0052,-0.008,-0.0087,-0.0087,-0.0087,-0.0017,-0.0012,-0.0008,0,0,0,0,0,0.0267,0.0282,0.0264,0.0252,0.0138,0.0074,0.0052,-0.0018,-0.0026,-0.002,-0.0039,-0.0054,-0.0062,-0.0059,-0.006,-0.0052,-0.0087,-0.0087,-0.0087,-0.0019,-0.0013,-0.0008,0,0,0,0,0,0,0.0331,0.0272,0.025,0.0244,0.0192,0.0065,0.0053,0.0017,-0.0008,0.0006,-0.0038,-0.0037,-0.0006,-0.0035,-0.0031,-0.0058,-0.0083,-0.0083,-0.0031,-0.0026,-0.0022,-0.0046,-0.008,0,0,0,0,0,0.0356,0.0361,0.0284,0.0282,0.0265,0.0171,0.0139,0.0099,0.0056,0.0045,0.0025,-0.0002,-0.0025,-0.002,-0.0042,-0.004,-0.0079,-0.0043,-0.0039,-0.0035,-0.0058,-0.0073,-0.0072,-0.0087,-0.0087,-0.0087,0,0,0.0357,0.0347,0.0332,0.0298,0.0243,0.0205,0.0157,0.0131,0.0108,0.0062,0.0055,0.0034,-0.0016,-0.0028,-0.0019,-0.0038,-0.0054,-0.0035,-0.003,-0.0057,-0.0073,-0.0071,-0.007,-0.0087,-0.0087,-0.0087,0,0,0.0382,0.0382,0.0388,0.0362,0.0327,0.0263,0.0282,0.0199,0.0183,0.0176,0.0123,0.0121,0.0092,0.0036,0.0008,0.003,-0.0019,0.0021,0.0016,0.0004,0.0005,0.0006,-0.0051,-0.0056,0.0012,0.0012,0.0012,0,0.0404,0.0395,0.0378,0.0385,0.0364,0.0308,0.0296,0.0252,0.0197,0.0198,0.0205,0.0134,0.0111,0.0064,0.0039,0.0043,0.0004,0.0007,0.0011,0.0011,0.001,-0.0048,-0.0054,0.0016,0.0015,0.0015,0.0015,0,0.0412,0.0412,0.0421,0.0408,0.0393,0.0377,0.0329,0.0323,0.0313,0.0269,0.027,0.0217,0.0178,0.0153,0.0092,0.0055,0.0019,0.0033,0.0003,0.0017,-0.0046,-0.0054,0.0021,0.0019,0.0018,0.0017,0,0,0.0446,0.0427,0.0432,0.0435,0.041,0.0396,0.0385,0.0351,0.0348,0.0325,0.0324,0.0252,0.0238,0.0199,0.0139,0.0082,0.0036,0.0034,0.0032,-0.0015,-0.0035,-0.0013,-0.002,0.0053,0.0052,0.0052,-0.008,0,0.0457,0.0473,0.0457,0.0454,0.0453,0.0423,0.0417,0.0397,0.0376,0.0367,0.0332,0.0316,0.0254,0.0238,0.0182,0.0099,0.0018,0.0067,-0.0051,-0.0056,-0.0029,-0.0026,0.0017,-0.0092,-0.0088,-0.009,-0.0091,0,0.0473,0.0488,0.049,0.0497,0.0496,0.0494,0.0491,0.0472,0.0446,0.0453,0.0433,0.0393,0.0332,0.0279,0.0148,0.0183,0.0053,-0.0035,-0.0039,-0.0054,-0.0046,-0.0105,-0.0107,-0.0105,-0.0104,-0.0103,-0.0102,0,0.051,0.0518,0.0527,0.0523,0.051,0.0535,0.0535,0.0516,0.052,0.0508,0.0517,0.0462,0.0465,0.0325,0.0185,0.0153,0.0029,-0.0008,-0.0132,-0.0134,-0.0141,-0.014,-0.0159,-0.0159,-0.0159,-0.0158,-0.0158,0,0.0528,0.0536,0.0557,0.0554,0.059,0.0596,0.0616,0.061,0.0621,0.0648,0.0575,0.058,0.0472,0.0395,0.0218,0.0066,0.0087,-0.0152,-0.0159,-0.0116,-0.0111,-0.0154,-0.0151,-0.0163,-0.0162,-0.0161,-0.016,0,0.0543,0.0537,0.056,0.0587,0.0597,0.064,0.0674,0.0688,0.0703,0.0735,0.0745,0.0701,0.0626,0.0481,0.0289,0.0147,-0.0029,-0.0117,-0.0072,-0.0072,-0.0224,-0.0217,-0.0298,-0.0298,-0.0298,-0.0298,-0.0298,0,0.0527,0.0554,0.0591,0.0615,0.0629,0.0681,0.0704,0.0733,0.0769,0.0803,0.0837,0.0781,0.0723,0.0487,0.0292,0.0036,-0.0026,-0.0137,-0.0202,-0.0236,-0.0236,-0.0228,-0.0221,-0.0205,-0.0205,-0.0204,-0.0204,0,0.053,0.0565,0.0575,0.0624,0.0668,0.0711,0.0778,0.0821,0.0876,0.0916,0.097,0.0916,0.073,0.0526,0.023,0.0056,-0.0072,-0.0139,-0.0153,-0.0154,-0.0152,-0.0151,-0.0146,-0.0199,-0.0199,-0.02,-0.02,-0.02,0.0515,0.0562,0.0588,0.0633,0.0682,0.0757,0.0817,0.0902,0.0972,0.1062,0.1029,0.096,0.072,0.0337,0.014,-0.0026,-0.0086,-0.0223,-0.0223,-0.0225,-0.0167,-0.0163,-0.0205,-0.0205,-0.0206,-0.0206,-0.0207,0,0.0507,0.0559,0.0598,0.0653,0.0717,0.0759,0.0863,0.094,0.106,0.1105,0.1128,0.0853,0.0578,0.036,0.0108,-0.0119,-0.0123,-0.0174,-0.0152,-0.0156,-0.016,-0.0097,-0.0118,-0.0118,-0.0118,-0.0118,0,0,0.0489,0.0525,0.0562,0.0655,0.0732,0.0845,0.093,0.1056,0.1114,0.1147,0.111,0.0924,0.0613,0.0409,0.0163,0.0053,0.0006,0.0036,-0.0018,0.0037,0.0036,-0.0175,-0.0082,0,0,0,0,0]}],[{"header":{"parameterUnit":"m.s-1","parameterCategory":2,"la1":30.2991,"la2":30.254,"lo1":-89.0895,"lo2":-89.0444,"dy":0.0017,"dx":0.0017,"nx":28,"ny":28,"refTime":"2024-07-10T03:00:00:Z","depth":"4","parameterNumber":2,"parameterNumberName":"U-component_of_CURRENTS"},"data":[0,0,0,0,0,0,0,0,0,0,0,0,0,0,0,0,0,0,0,0,0,0,0,0,0,0,0,0,0,0,0,0,0,0,0,0,0,0,0,0,0,0,0,0,0,0,0,0,0,0,0,0,0,0,0,0,0,0,-0.0072,-0.0072,0,-0.0042,-0.0041,-0.0041,0.0029,0.0031,0.0032,0.0034,0.0055,0.0054,0.0054,0,0,0,0,0,0,0,0,0,0,0,0,0,-0.0069,-0.007,-0.0072,-0.0072,-0.0071,-0.0042,-0.0041,-0.0041,0.0029,0.0031,0.0033,0.0034,0.0055,0.0054,0.0053,0,0,0,0,0,0,0,0,0,0,0,0,0,-0.0058,-0.007,-0.0072,-0.0033,-0.0029,-0.0042,-0.0041,-0.0041,0.0029,0.0031,0.0033,0.0035,0.0056,0.0055,0.0053,0.0002,0,0,0.005,0.0049,0,0,0,0,0,0,0,0,-0.0059,-0.0058,-0.0039,-0.0035,-0.0031,-0.0008,-0.0033,-0.0027,0.0028,0.0007,0.0034,0.0036,0.0032,0.0033,0.0033,0.0003,0.0004,0.005,0.0049,0.0048,0.0048,0,0,0,0,0,0,0,-0.006,-0.0059,-0.006,-0.0039,-0.0034,-0.0017,-0.0013,-0.0031,0.0006,0.0009,0.0014,0.0017,0.0034,0.0034,0.0034,0.0004,0.005,0.0049,0.0048,0.0047,0.0012,0.0012,0,0,0,0,0,0,-0.0066,-0.006,-0.0061,-0.0059,-0.004,-0.0019,-0.0014,-0.0017,0.0007,0.0013,0.0015,0.002,0.0035,0.0036,0.0035,0.0062,0.0048,0.0047,0.0047,0.0012,0.0012,0.0012,0,0,0,0,0,0,-0.0066,-0.0067,-0.0062,-0.0058,-0.0056,-0.0021,-0.0025,-0.0018,0.0019,0.0012,0.0018,0.0049,0.0037,0.0037,0.0043,0.006,0.0047,0.0046,0.0013,0.0012,0.0012,0.0059,0,0,0,0,0,0,-0.0067,-0.0067,-0.0066,-0.0059,-0.0057,-0.0056,-0.0027,-0.0019,0.0015,0.0023,0.0041,0.0044,0.0039,0.0044,0.0041,0.0058,0.0045,0.0013,0.0012,0.0012,0.0057,0.006,0.0062,0,0,0,0,0,-0.0067,-0.0082,-0.0067,-0.0066,-0.0059,-0.0056,-0.0054,-0.0021,0.0015,0.0023,0.0041,0.0045,0.004,0.0043,0.004,0.0056,0.0013,0.0013,0.0012,0.0056,0.0059,0.0062,0,0,0,0,0,0,-0.0076,-0.0076,-0.0059,-0.0071,-0.0055,-0.0044,-0.0036,-0.0007,0.0014,0.0035,0.0038,0.004,0.0051,0.0038,0.0042,0.0042,0.0028,0.0027,0.0063,0.0066,0.0068,0.0094,0.0044,0,0,0,0,0,-0.008,-0.0093,-0.0079,-0.0086,-0.0076,-0.0048,-0.0037,-0.0009,0.0006,0.0021,0.0039,0.0046,0.0037,0.0043,0.0032,0.0028,0.0022,0.0036,0.0039,0.0041,0.0058,0.0044,0.0048,0.001,0.001,0.001,0,0,-0.0087,-0.0088,-0.0093,-0.0088,-0.0072,-0.0062,-0.0035,-0.0011,0.001,0.0015,0.0053,0.0055,0.0036,0.0038,0.0042,0.0038,0.0048,0.004,0.0043,0.0058,0.0044,0.0048,0.0052,0.001,0.001,0.001,0,0,-0.0112,-0.0101,-0.0116,-0.0103,-0.0076,-0.0059,-0.0043,-0.0008,0.0024,0.005,0.0057,0.007,0.0072,0.0061,0.0052,0.0055,0.0058,0.0059,0.0098,0.0085,0.0089,0.0092,0.0092,0.0095,0.0064,0.0064,0.0064,0,-0.0109,-0.0126,-0.0117,-0.0117,-0.0099,-0.0053,-0.004,-0.0018,0.0022,0.0048,0.0072,0.0088,0.0078,0.0069,0.0084,0.0063,0.0068,0.0092,0.009,0.0093,0.0096,0.0095,0.0098,0.0066,0.0066,0.0065,0.0065,0,-0.0145,-0.0141,-0.0144,-0.0129,-0.0111,-0.0092,-0.0054,-0.0014,0.0042,0.0071,0.0107,0.0101,0.0122,0.0111,0.0108,0.0118,0.012,0.0094,0.009,0.0103,0.0101,0.0103,0.0069,0.0068,0.0068,0.0067,0,0,-0.0171,-0.0169,-0.0167,-0.0147,-0.0105,-0.009,-0.0051,-0.0006,0.0038,0.0084,0.0129,0.013,0.0168,0.0161,0.0154,0.0148,0.0171,0.015,0.0148,0.0163,0.0168,0.0142,0.0141,0.0157,0.0158,0.0158,0.0162,0,-0.0186,-0.0202,-0.0187,-0.0162,-0.0149,-0.0089,-0.0056,-0.0004,0.0054,0.0107,0.0125,0.0166,0.0172,0.0206,0.0201,0.0175,0.0179,0.0174,0.0143,0.0142,0.0127,0.0143,0.0159,0.0163,0.0164,0.0164,0.0164,0,-0.0218,-0.0218,-0.0214,-0.0158,-0.0143,-0.0107,-0.002,0.0019,0.0091,0.0141,0.0195,0.0223,0.0245,0.0243,0.023,0.0237,0.0226,0.0198,0.0197,0.0162,0.0119,0.0144,0.0167,0.0167,0.0167,0.0166,0.0166,0,-0.025,-0.0225,-0.0221,-0.0205,-0.0146,-0.0096,-0.0034,0.0045,0.0095,0.0188,0.0236,0.0263,0.0297,0.028,0.0249,0.0263,0.0208,0.0207,0.0167,0.0165,0.0168,0.0164,0.02,0.02,0.02,0.02,0.02,0,-0.0263,-0.0255,-0.0221,-0.0216,-0.0158,-0.0092,-0.0009,0.0057,0.015,0.0194,0.0274,0.0275,0.0316,0.0288,0.0257,0.0212,0.0217,0.0188,0.0166,0.0186,0.0185,0.017,0.0166,0.02,0.02,0.02,0.02,0,-0.0282,-0.028,-0.0276,-0.0216,-0.0176,-0.0122,0.0016,0.0068,0.0174,0.0234,0.0274,0.0311,0.0287,0.0281,0.0234,0.0226,0.0169,0.0144,0.017,0.0147,0.0147,0.0145,0.015,0.0149,0.0148,0.0148,0.0147,0,-0.0287,-0.0296,-0.0286,-0.0266,-0.0219,-0.012,-0.0055,0.0072,0.0121,0.0207,0.0207,0.0241,0.025,0.0185,0.0148,0.0121,0.0106,0.0122,0.0157,0.0165,0.0143,0.0142,0.0142,0.0146,0.0146,0.0145,0.0145,0,-0.0289,-0.0314,-0.0317,-0.0295,-0.0233,-0.0169,-0.0063,-0.0019,0.0103,0.0174,0.0201,0.0223,0.0184,0.0155,0.0151,0.0098,0.0142,0.0115,0.0118,0.0151,0.016,0.0139,0.0139,0.0143,0.0143,0.0143,0.0144,0,-0.0293,-0.0315,-0.0345,-0.029,-0.0259,-0.0208,-0.0146,-0.0057,0.0022,0.0156,0.0111,0.013,0.0154,0.0131,0.0065,0.0082,0.0105,0.0147,0.0149,0.0152,0.0145,0.0156,0.013,0,0,0,0,0,-0.0281,-0.0308,-0.0312,-0.0288,-0.027,-0.0231,-0.0156,-0.0097,0.0007,0.0049,0.0125,0.0094,0.0106,0.0056,0.0075,0.0009,0.006,0.0028,0.0099,0.0129,0.0132,0.012,0,0,0,0,0,0,-0.0281,-0.0318,-0.0326,-0.0286,-0.026,-0.0227,-0.0181,-0.0117,-0.0076,0.0023,0.0009,0.0105,0.0069,0.0105,0.0075,0.0071,0.0123,0.0043,0.0043,0.0127,0.013,0.0132,0.0121,0,0,0,0,0]},{"header":{"parameterUnit":"m.s-1","parameterCategory":2,"la1":30.2991,"la2":30.254,"lo1":-89.0895,"lo2":-89.0444,"dy":0.0017,"dx":0.0017,"nx":28,"ny":28,"refTime":"2024-07-10T03:00:00:Z","depth":"4","parameterNumber":3,"parameterNumberName":"V-component_of_CURRENTS"},"data":[0,0,0,0,0,0,0,0,0,0,0,0,0,0,0,0,0,0,0,0,0,0,0,0,0,0,0,0,0,0,0,0,0,0,0,0,0,0,0,0,0,0,0,0,0,0,0,0,0,0,0,0,0,0,0,0,0,0,0.0403,0.0403,0,0.0389,0.0389,0.0388,0.0386,0.0387,0.0387,0.0387,0.033,0.0328,0.0327,0,0,0,0,0,0,0,0,0,0,0,0,0,0.036,0.0361,0.0403,0.0403,0.0403,0.0389,0.0389,0.0388,0.0386,0.0387,0.0387,0.0387,0.0331,0.0329,0.0327,0,0,0,0,0,0,0,0,0,0,0,0,0,0.0364,0.0362,0.0403,0.0401,0.0401,0.0389,0.0389,0.0388,0.0386,0.0387,0.0387,0.0387,0.0331,0.0329,0.0326,0.0301,0,0,0.0318,0.0317,0,0,0,0,0,0,0,0,0.0364,0.0366,0.0402,0.0401,0.0401,0.0391,0.0353,0.0358,0.0386,0.039,0.0387,0.0388,0.0347,0.0343,0.0338,0.0299,0.0296,0.0318,0.0316,0.0315,0.0314,0,0,0,0,0,0,0,0.0364,0.0366,0.0396,0.0402,0.0401,0.0378,0.038,0.0353,0.0364,0.039,0.039,0.0391,0.0347,0.0341,0.0337,0.0295,0.0318,0.0316,0.0314,0.0313,0.0181,0.0179,0,0,0,0,0,0,0.0372,0.0366,0.0396,0.0395,0.0385,0.0379,0.0381,0.0393,0.0366,0.0363,0.0391,0.0391,0.0345,0.034,0.0335,0.0269,0.0315,0.0313,0.0311,0.0183,0.018,0.0178,0,0,0,0,0,0,0.0372,0.0376,0.0397,0.0381,0.0382,0.038,0.0393,0.0392,0.0383,0.0367,0.0363,0.0383,0.0345,0.0338,0.0297,0.0268,0.0311,0.0309,0.0185,0.0182,0.0179,0.016,0,0,0,0,0,0,0.0371,0.0376,0.0383,0.0382,0.0384,0.0386,0.0393,0.0392,0.0384,0.0384,0.0359,0.0354,0.0345,0.0301,0.0294,0.0265,0.0307,0.0187,0.0184,0.018,0.0163,0.0157,0.0151,0,0,0,0,0,0.0369,0.0375,0.0383,0.0387,0.0395,0.0386,0.0384,0.0382,0.0383,0.0376,0.0351,0.0355,0.0273,0.0297,0.029,0.026,0.0189,0.0185,0.018,0.0166,0.0158,0.0152,0,0,0,0,0,0,0.0352,0.0376,0.0385,0.0396,0.0391,0.0386,0.0378,0.0377,0.0353,0.0348,0.0335,0.0327,0.0277,0.0267,0.0294,0.0208,0.0229,0.0223,0.0221,0.0213,0.0208,0.0211,0.0305,0,0,0,0,0,0.0355,0.0371,0.0379,0.0385,0.0384,0.038,0.0375,0.0372,0.0354,0.0345,0.0322,0.029,0.0253,0.0235,0.0202,0.0159,0.0157,0.0131,0.0126,0.0121,0.0117,0.0087,0.0079,0.0164,0.0164,0.0164,0,0,0.035,0.0364,0.0372,0.0383,0.0378,0.0366,0.0377,0.0365,0.0344,0.034,0.0294,0.0269,0.0236,0.0185,0.0162,0.0175,0.0095,0.0116,0.0112,0.011,0.0082,0.0074,0.0067,0.0161,0.0162,0.0162,0,0,0.034,0.0358,0.0365,0.036,0.0358,0.0351,0.0347,0.0333,0.0317,0.0275,0.026,0.0217,0.0166,0.0135,0.0114,0.0054,0.0065,0.0041,0.0018,-0.0011,-0.0018,-0.0023,-0.0028,-0.0034,0.004,0.004,0.004,0,0.0327,0.0345,0.036,0.0355,0.0345,0.0343,0.0328,0.0308,0.0277,0.0253,0.0255,0.0162,0.0139,0.0075,0.0053,0.0041,0.0039,0.0053,-0.0016,-0.0022,-0.0027,-0.0031,-0.0037,0.0039,0.0039,0.0039,0.0039,0,0.0319,0.0329,0.0325,0.0324,0.0311,0.0297,0.0277,0.0249,0.0227,0.0206,0.0138,0.0102,0.0052,0.003,0.0024,-0.0036,-0.002,-0.0017,0.001,-0.0037,-0.0038,-0.0044,0.0037,0.0037,0.0038,0.0038,0,0,0.0292,0.0319,0.0315,0.0315,0.0294,0.0282,0.0237,0.0198,0.0169,0.0123,0.0076,0.0006,-0.0003,-0.0029,-0.0046,-0.0075,-0.0114,-0.0061,-0.0062,-0.0051,-0.0159,-0.014,-0.0144,-0.0117,-0.0118,-0.012,-0.0139,0,0.0275,0.0283,0.0287,0.0264,0.0261,0.0237,0.0199,0.0159,0.0122,0.0075,0.0025,-0.0018,-0.0028,-0.0044,-0.0082,-0.011,-0.0133,-0.0107,-0.0128,-0.0129,-0.0094,-0.0152,-0.0125,-0.0144,-0.0145,-0.0146,-0.0147,0,0.0251,0.0267,0.0265,0.0251,0.0243,0.0222,0.0165,0.0133,0.0067,0.004,-0.0014,-0.0042,-0.0104,-0.0093,-0.0166,-0.0146,-0.0155,-0.017,-0.0171,-0.0151,-0.0123,-0.0093,-0.0158,-0.0157,-0.0156,-0.0156,-0.0155,0,0.0231,0.0235,0.0242,0.0237,0.0224,0.0202,0.018,0.0121,0.01,0.0031,0.0012,-0.007,-0.0097,-0.0143,-0.0175,-0.017,-0.0238,-0.0233,-0.0223,-0.022,-0.0218,-0.0211,-0.0276,-0.0276,-0.0276,-0.0275,-0.0275,0,0.0197,0.0197,0.0242,0.0242,0.0229,0.021,0.0177,0.014,0.01,0.0065,0.0009,-0.0041,-0.0109,-0.0155,-0.0185,-0.0226,-0.0245,-0.024,-0.0236,-0.0225,-0.022,-0.0221,-0.0214,-0.0276,-0.0276,-0.0276,-0.0276,0,0.0157,0.0193,0.0211,0.0227,0.0227,0.0218,0.0203,0.0183,0.0145,0.01,0.0086,-0.0012,-0.0087,-0.0133,-0.0207,-0.0227,-0.0269,-0.0267,-0.024,-0.0231,-0.0228,-0.0223,-0.0278,-0.0277,-0.0277,-0.0277,-0.0277,0,0.0141,0.0155,0.0211,0.0231,0.024,0.0236,0.023,0.0206,0.0183,0.0102,0.0072,-0.0,-0.0068,-0.0161,-0.0218,-0.0263,-0.026,-0.0268,-0.0271,-0.0244,-0.0234,-0.0229,-0.0224,-0.0277,-0.0276,-0.0276,-0.0276,0,0.0108,0.0144,0.0163,0.0225,0.0244,0.0249,0.0234,0.0219,0.0173,0.0165,0.0059,-0.0008,-0.0091,-0.0179,-0.0191,-0.0232,-0.0268,-0.0266,-0.0266,-0.027,-0.0243,-0.0232,-0.0228,-0.0276,-0.0276,-0.0276,-0.0276,0,0.0093,0.01,0.0156,0.0198,0.024,0.0236,0.0226,0.019,0.0171,0.0097,0.0052,-0.0043,-0.0096,-0.0164,-0.02,-0.0216,-0.0227,-0.023,-0.0233,-0.0234,-0.0215,-0.0174,-0.0196,0,0,0,0,0,0.0079,0.0081,0.0121,0.016,0.0209,0.0232,0.0219,0.0203,0.0166,0.0108,0.0087,0.0007,-0.008,-0.0149,-0.0161,-0.0198,-0.0228,-0.0214,-0.0231,-0.0272,-0.0272,-0.0257,0,0,0,0,0,0,0.0066,0.0087,0.0107,0.014,0.0162,0.0189,0.0187,0.0156,0.0113,0.0077,0.0026,0.0018,-0.007,-0.0057,-0.0157,-0.0168,-0.018,-0.0249,-0.0249,-0.0271,-0.0272,-0.0273,-0.0257,0,0,0,0,0]}]]